{"data":{"norad_id":64215,"intl_designator":"2025-117N","name":"STARLINK-34349","alt_names":[],"object_type":"PAYLOAD","status":"ACTIVE","operator":null,"country":"US","launch_date":"2025-05-31","launch_site_code":"AFWTR","launch_vehicle":null,"mission":null,"orbit_class":"UNKNOWN","rcs_meters":null,"size_class":null,"mass_kg":null,"dimensions":null,"purposes":["comms"],"wikipedia_slug":null,"has_3d_model":false,"image_url":null,"decayed_at":null,"tle_current":{"epoch":"2026-09-20T06:34:26.062464Z","epoch_age_seconds":157216,"freshness":"FRESH","line1":"1 64215U 25117N   26263.27391276  .00018379  00000+0  55352-3 0  9990","line2":"2 64215  53.1568 212.4999 0001331  92.1909 267.9246 15.34413972 74367","mean_motion":15.34413972,"eccentricity":0.0001331,"inclination_deg":53.1568,"raan_deg":212.4999,"arg_perigee_deg":92.1909,"mean_anomaly_deg":267.9246,"bstar":0.00055352,"rev_number":7436,"period_min":93.846903526502,"perigee_km":461.75120248508,"apogee_km":463.57222310243,"semimajor_km":6840.7987127938,"source":"CELESTRAK","updated_at":"2026-09-21T09:00:35.272487Z"}}}